Theta_e
330 329 327 326 324 324 325 325 333 336 337 337 338 337 336 336 335 334 334 334 333 332 330 328 328 327 328 328 329 330 331 331
320 321 321 319 321 323 325 324 326 330 334 333 327 330 337 337 335 336 336 334 333 333 332 331 330 328 328 327 327 329 330 331
316 318 318 319 319 322 323 323 322 321 321 321 321 324 331 334 338 337 337 337 336 334 334 333 333 331 330 329 329 328 329 331
315 316 317 317 317 318 318 319 319 318 318 317 318 318 318 319 328 333 336 336 336 337 335 334 335 334 333 330 329 327 328 329
313 313 313 312 312 312 312 312 312 312 313 313 313 313 314 315 315 315 320 327 336 336 336 336 335 335 335 334 331 330 329 330
311 311 310 310 310 310 310 310 310 310 310 311 311 311 311 311 311 313 315 316 319 326 331 333 335 336 335 334 334 332 330 331
309 309 309 309 309 308 308 308 308 308 308 308 308 309 309 310 310 310 310 313 318 319 323 326 326 327 332 334 335 334 329 332
308 308 308 308 308 308 308 307 307 306 306 306 306 306 307 308 308 308 309 309 310 319 325 324 323 319 321 321 321 329 329 327
307 307 307 308 308 307 306 305 304 304 304 304 304 304 304 304 305 306 307 307 308 309 312 319 324 321 320 325 322 326 326 330
307 307 307 306 306 305 304 304 304 303 303 303 303 304 304 304 303 304 304 305 306 306 307 308 309 318 322 321 323 321 324 322
307 307 306 306 304 304 304 304 303 303 303 303 303 302 302 303 303 303 303 303 304 304 305 306 307 308 315 321 323 326 321 315
307 306 305 304 304 304 304 304 303 304 303 303 302 302 301 301 301 301 300 301 302 303 303 305 306 308 309 312 321 324 323 323
306 304 304 304 303 304 303 303 303 303 302 301 301 300 300 299 299 298 297 297 297 299 301 302 304 306 307 309 310 315 323 322
304 303 303 303 303 303 301 301 301 301 301 301 300 299 298 297 295 295 294 293 293 294 296 299 301 304 306 308 310 309 309 312
303 302 302 302 302 301 300 299 298 300 300 299 298 296 295 293 291 290 291 291 292 292 293 295 297 300 303 306 313 317 316 315
303 301 301 301 301 297 297 296 296 296 297 297 296 293 290 289 289 289 290 290 290 290 291 293 294 296 298 304 306 309 313 315
302 300 300 300 299 295 293 293 293 294 296 296 295 291 288 288 287 288 288 289 289 290 291 291 293 294 295 299 302 307 310 312
301 299 299 298 297 293 292 292 292 293 294 295 294 289 288 287 287 287 288 288 288 289 290 291 292 294 295 296 299 301 308 309
300 298 297 297 293 292 291 290 290 291 293 292 291 288 288 286 286 287 287 287 287 290 291 292 293 294 295 295 297 299 302 304
299 297 296 294 292 291 290 288 289 290 292 292 289 288 287 286 286 286 287 287 289 290 291 292 294 295 295 296 297 298 300 301
Wind_Speed
5 5 5 6 6 8 8 8 7 8 7 8 8 10 11 12 13 15 17 19 19 21 20 20 21 21 20 19 17 15 13 12
3 3 3 5 5 7 8 10 9 8 9 9 10 9 10 12 14 16 18 20 22 22 23 23 24 24 23 22 20 18 17 15
5 4 5 6 6 6 7 8 9 10 9 9 10 10 9 10 10 13 16 19 23 25 24 25 26 27 27 25 23 23 20 19
6 5 5 6 6 6 7 8 9 11 12 12 11 11 11 11 11 12 13 15 20 23 26 28 28 30 29 27 27 26 24 22
7 7 8 8 9 9 9 10 11 12 14 16 15 14 14 14 14 12 11 14 14 17 22 26 28 30 30 30 29 28 25 24
9 10 10 11 12 12 12 13 14 14 15 17 19 20 19 19 17 17 16 15 15 16 17 21 25 27 30 30 31 30 27 29
9 10 11 12 12 13 14 15 16 17 18 19 22 23 24 24 23 21 20 18 19 20 21 22 22 24 27 29 33 32 30 31
11 13 14 15 16 17 18 19 20 20 20 21 24 24 24 26 26 27 26 24 22 23 25 25 23 21 24 22 25 30 33 43
10 12 14 15 17 19 21 22 23 23 23 23 24 25 27 29 29 28 28 29 28 27 29 27 25 23 26 23 21 29 31 29
11 12 13 15 19 21 22 24 24 25 25 25 22 25 28 31 32 30 29 31 31 31 30 30 27 24 24 28 24 24 30 29
9 11 14 16 18 21 23 25 26 26 27 26 27 27 29 30 31 32 33 31 30 31 30 28 29 27 27 25 21 23 24 24
8 10 12 15 17 20 23 24 26 27 28 29 30 32 33 34 34 35 34 33 32 31 31 30 27 28 29 31 30 24 25 25
9 11 13 17 21 24 26 28 29 28 30 31 34 36 37 38 39 39 38 36 34 33 34 33 31 26 28 31 34 34 30 30
9 11 15 18 21 23 24 25 25 26 27 29 31 34 35 36 35 36 36 35 30 27 27 30 33 23 20 22 22 30 33 33
9 11 15 18 20 21 21 21 25 28 31 33 35 34 32 29 28 27 28 28 29 28 25 22 26 28 22 12 8 8 13 17
8 10 14 18 20 20 21 23 26 27 28 30 32 30 27 24 24 24 26 27 28 27 23 23 24 25 28 26 24 18 7 12
8 8 14 18 19 19 20 21 23 24 27 30 34 31 26 25 25 26 24 25 24 22 22 21 20 23 24 28 29 29 25 21
6 7 12 16 16 18 19 20 22 24 27 29 33 30 28 25 28 25 24 23 23 23 21 21 21 22 22 22 27 21 16 12
6 7 12 14 15 16 17 19 20 23 25 27 31 29 29 27 29 27 23 22 21 21 19 19 18 22 23 23 23 28 30 25
7 9 10 11 14 15 17 18 19 20 22 24 27 27 28 27 26 25 22 21 20 18 16 17 18 18 17 19 19 23 23 29
Wind_Direction
60 40 7 359 351 337 333 328 335 337 338 330 315 299 285 275 268 265 268 267 265 261 261 265 266 267 269 269 269 264 251 234
41 20 344 329 339 330 326 331 336 335 329 323 322 311 295 285 280 275 267 263 263 266 267 266 267 269 269 268 266 263 256 236
38 28 13 4 8 6 350 350 343 342 340 341 336 329 317 302 302 287 278 273 268 265 263 264 267 269 268 269 269 267 264 253
42 40 30 24 22 18 5 352 350 347 337 337 340 339 338 329 315 300 294 284 273 270 266 266 267 266 267 269 268 269 266 259
40 36 29 18 15 11 359 350 348 340 331 324 327 322 318 315 311 311 302 290 286 287 280 271 266 267 270 268 266 270 270 265
31 29 20 11 8 360 354 345 341 336 328 317 315 311 309 307 305 301 295 292 286 279 290 289 282 272 264 265 260 258 257 270
29 27 19 11 3 358 353 347 345 343 335 326 322 316 312 308 304 301 294 284 275 274 274 275 277 283 278 269 260 250 247 254
23 18 17 8 0 356 354 351 350 345 338 334 327 320 313 306 303 301 297 290 279 268 270 274 277 275 276 279 277 264 238 249
21 12 8 1 358 356 355 351 345 340 335 329 325 317 310 305 302 297 295 291 285 276 270 271 270 268 267 276 281 270 257 254
13 9 6 1 356 355 350 345 339 335 331 328 319 312 309 304 302 297 291 286 286 283 279 277 274 265 265 268 275 273 259 255
359 355 353 351 348 345 341 338 336 332 328 324 318 311 307 303 302 300 295 289 284 285 280 277 275 267 256 259 265 273 273 267
344 341 341 344 342 340 338 337 334 332 327 323 316 309 304 302 300 298 297 293 287 281 280 277 277 274 269 257 255 251 259 266
333 338 339 340 343 345 344 343 340 336 333 326 316 310 305 300 298 299 298 296 292 285 277 279 275 277 276 269 261 258 250 258
329 340 338 343 348 348 347 345 345 341 337 334 329 320 312 306 303 301 302 303 303 300 295 283 271 272 288 279 287 271 259 253
328 341 337 341 344 342 343 343 343 344 347 345 343 335 326 321 317 315 311 308 306 301 293 294 294 267 254 266 299 258 294 264
331 341 333 336 340 342 343 344 343 343 343 344 345 345 338 334 329 320 316 311 307 305 296 277 275 280 267 240 250 265 308 300
335 341 325 332 336 335 334 338 341 341 341 348 351 354 347 342 334 327 322 319 316 309 299 287 272 272 269 263 256 251 248 269
321 321 312 324 329 329 337 341 343 343 345 353 354 357 350 347 342 336 328 322 315 311 304 290 277 264 262 262 255 258 248 278
278 295 302 321 322 328 338 340 341 345 349 356 359 360 355 351 344 348 342 337 329 331 329 317 295 268 259 260 254 250 248 259
280 289 301 313 315 329 335 340 345 345 351 356 5 6 1 353 350 356 356 353 348 345 343 335 308 287 266 256 263 248 248 256